STARLINK-31554

operational
NORAD ID: 59195 Int'l Des: 2024-045 Owner: SPXS Country: US Constellation: starlink
LEOCIRCULAR

Über STARLINK-31554

Beschreibung wird geladen...

Live-Position

3D-Globus wird geladen...

Nächste Überflüge

Höhenverlauf

Altitude vs Time

uPlot chart will show altitude changes over time

Zweizeiliger Elementsatz

1 59195U 24045T 25251.42121896 -.00000725 00000-0 -16824-4 0 9993
2 59195 43.0039 42.0808 0000984 269.3287 90.7452 15.27566774 85280
Epoch: 8. Sept. 2025 • Age: 10 hours

Aktueller Status

Höhe 484.9 km
Geschwindigkeit 7.63 km/s
Subsatellitenpunkt 34.12°N, 161.48°E
Startdatum 11. März 2024
Alter 1.4 years
Typ internet

Technische Details

Klassifizierung Payload
Masse 730.00 kg
Trockenmasse 700.00 kg
Gesamtmasse 730.00 kg
Länge 0.30 m
Durchmesser 4.10 m
Spannweite 29.00 m
Form Box + pan
Hersteller SPXS
Bus-Typ Starlink V2M
Phasenstatus In Orbit
Besitzer/Staat SPXS/US

Große Konstellationen

Loading constellations...